Home   Weather   Goslar   Past weeks

Flag for Germany Past Weather in Goslar, Lower Saxony, Germany — Yesterday and Last 2 Weeks

Now
23 °F

Ice fog.


Feels Like: 18 °F
Forecast: 14 / 25 °F
Wind: 3 mph from North

Location: Braunschweig Wolfsburg

Current Time: Jan 22, 2017 at 9:44:38 pm

Latest Report: Jan 22, 2017 at 6:50 pm


Visibility: 3 mi

Pressure: 30.30 "Hg

Humidity: 100%

Dew Point: 23 °F

Location of GoslarLocation

Past Weather in Goslar — Graph

°F

Goslar Temperature Yesterday

Maximum temperature yesterday: 39 °F (at 1:50 pm)
Minimum temperature yesterday: 32 °F (at 8:20 am)
Average temperature yesterday: 35 °F

High & Low Weather Summary for the Past Weeks

 TemperatureHumidityPressure
High43 °F (Jan 12, 12:50 pm)100% (Jan 8, 1:50 pm)30.74 "Hg (Jan 8, 1:50 pm)
Low21 °F (Jan 16, 6:50 am)48% (Jan 8, 9:50 am)28.94 "Hg (Jan 13, 6:50 am)
Average32 °F88%30.14 "Hg
* Reported Jan 8 8:20 am — Jan 22 6:50 pm, Goslar, Weather by CustomWeather, © 2017

Note: Actual official high and low records may vary slightly from our data, if they occured in-between our weather recording intervals... More about our weather records

Advertising

Goslar Weather History for the Previous 24 Hours

Scroll right to see more
 ConditionsComfort  
Time TempWeatherWind HumidityBarometerVisibility
6:50 pm
Sun, Jan 22
23 °FIce fog.3 mph100%30.30 "Hg2 mi
6:20 pm25 °FIce fog.2 mph93%30.30 "Hg3 mi
5:50 pm27 °FIce fog.5 mph93%30.30 "Hg3 mi
5:20 pm27 °FIce fog.5 mph100%30.30 "Hg3 mi
4:20 pm27 °FIce fog.5 mph100%30.30 "Hg2 mi
3:50 pm27 °FIce fog.5 mph100%30.30 "Hg2 mi
3:20 pm28 °FIce fog.3 mph100%30.30 "Hg2 mi
2:50 pm28 °FIce fog.5 mph100%30.30 "Hg2 mi
2:20 pm28 °FIce fog.6 mph93%30.33 "Hg2 mi
1:50 pm27 °FIce fog.3 mph100%30.33 "Hg2 mi
1:20 pm27 °FIce fog.2 mph100%30.33 "Hg2 mi
12:20 pm27 °FIce fog.3 mph100%30.36 "Hg1 mi
11:20 am27 °FSnow. Cloudy.3 mph93%30.36 "Hg1 mi
10:50 am27 °FIce fog.5 mph93%30.36 "Hg1 mi
10:20 am25 °FIce fog.6 mph100%30.39 "Hg1 mi
9:50 am25 °FIce fog.7 mph100%30.36 "Hg1 mi
9:20 am25 °FIce fog.7 mph100%30.36 "Hg1 mi
8:50 am27 °FIce fog.6 mph100%30.36 "Hg1 mi
8:20 am27 °FSnow. Cloudy.5 mph100%30.36 "Hg1 mi
7:20 am27 °FIce fog.5 mph100%30.36 "Hg0 mi
Weather by CustomWeather, © 2017

See weather overviewHow to use our weather pages